Weather History for Bishop, CA

Change the Weather History Date:

Wednesday, December 19, 2012

  Actual Average Record
Temperature  
Mean Temperature 27 °F 37 °F  
Max Temperature 42 °F 53 °F 69 °F (1985)
Min Temperature 11 °F 22 °F 8 °F (1967)
Degree Days  
Heating Degree Days 38 28  
Month to date heating degree days 457 513  
Since 1 July heating degree days 1278 1414  
Cooling Degree Days 0 0  
Month to date cooling degree days 0 0  
Year to date cooling degree days 1161 1104  
Moisture  
Dew Point -1 °F    
Average Humidity 33    
Maximum Humidity 57    
Minimum Humidity 9    
Precipitation  
Precipitation 0.00 in 0.03 in 3.32 in (2010)
Month to date precipitation 0.25 0.40  
Year to date precipitation 2.96 4.78  
Snow  
Snow 0.00 in 0.00 in 2.50 in (1967)
Month to date snowfall T 0.6  
Since 1 July snowfall T 1.0  
Snow Depth 0.00 in    
Sea Level Pressure  
Sea Level Pressure 30.25 in    
Wind  
Wind Speed 6 mph (NNW)    
Max Wind Speed 20 mph    
Max Gust Speed 23 mph    
Visibility 10 miles    
Events      
T = Trace of Precipitation, MM = Missing Value Source: NWS Daily Summary

Daily Weather History Graph

Daily Weather History Graph

Search for Another Location

Airport:

Trip Planner

Search our weather history database for the weather conditions in past years. The results will help you decide how hot, cold, wet, or windy it might be!

Date:

Astronomy

Dec. 19, 2012 Rise Set
Actual Time 7:03 AM PST 4:38 PM PST
Civil Twilight 6:34 AM PST 5:07 PM PST
Nautical Twilight 6:01 AM PST 5:40 PM PST
Astronomical Twilight 5:29 AM PST 6:12 PM PST
Moon 11:22 AM PST No Moon Set
Length of Visible Light 10h 33m
Length of Day
9h 35m
Waxing Crescent, 46% of the Moon is Illuminated
Dec 19
Waxing Crescent
Dec 19
First Quarter
Dec 28
Full
Jan 4
Last Quarter
Jan 11
New

Hourly Weather History & Observations

Time (PST) Temp. Windchill Dew Point Humidity Pressure Visibility Wind Dir Wind Speed Gust Speed Precip Events Conditions
12:56 AM 24.1 °F 12.0 °F 9.0 °F 53% 30.06 in 10.0 mi North 13.8 mph - N/A   Clear
1:56 AM 23.0 °F 9.2 °F 8.1 °F 53% 30.08 in 10.0 mi North 17.3 mph 23.0 mph N/A   Clear
2:56 AM 21.9 °F 8.2 °F 8.1 °F 55% 30.08 in 10.0 mi North 16.1 mph - N/A   Clear
3:56 AM 21.0 °F 8.1 °F 7.0 °F 55% 30.10 in 10.0 mi North 13.8 mph - N/A   Clear
4:56 AM 21.0 °F 11.4 °F 6.1 °F 53% 30.15 in 10.0 mi WNW 8.1 mph - N/A   Clear
5:56 AM 21.9 °F 8.2 °F 3.9 °F 46% 30.20 in 10.0 mi NW 16.1 mph - N/A   Clear
6:56 AM 19.9 °F 11.1 °F 3.0 °F 48% 30.23 in 10.0 mi NNW 6.9 mph - N/A   Clear
7:56 AM 19.9 °F 13.4 °F 3.0 °F 48% 30.26 in 10.0 mi WNW 4.6 mph - N/A   Clear
8:56 AM 27.0 °F 23.0 °F 1.9 °F 34% 30.27 in 10.0 mi North 3.5 mph - N/A   Clear
9:56 AM 30.0 °F - 1.9 °F 30% 30.27 in 10.0 mi Calm Calm - N/A   Clear
10:56 AM 34.0 °F - -0.0 °F 24% 30.27 in 10.0 mi Calm Calm - N/A   Clear
11:56 AM 36.0 °F - -6.0 °F 17% 30.24 in 10.0 mi Calm Calm - N/A   Clear
12:56 PM 37.9 °F 35.5 °F -9.0 °F 13% 30.23 in 10.0 mi WNW 3.5 mph - N/A   Clear
1:56 PM 41.0 °F 39.0 °F -11.9 °F 10% 30.22 in 10.0 mi West 3.5 mph - N/A   Clear
2:56 PM 42.1 °F - -15.0 °F 9% 30.21 in 10.0 mi Calm Calm - N/A   Clear
3:56 PM 39.9 °F 37.8 °F -9.0 °F 12% 30.23 in 10.0 mi SE 3.5 mph - N/A   Clear
4:56 PM 32.0 °F 26.4 °F -8.0 °F 18% 30.27 in 10.0 mi SSE 5.8 mph - N/A   Clear
5:56 PM 28.9 °F 23.9 °F -0.9 °F 28% 30.30 in 10.0 mi SSE 4.6 mph - N/A   Clear
6:56 PM 27.0 °F 23.0 °F -4.0 °F 26% 30.34 in 10.0 mi West 3.5 mph - N/A   Clear
7:56 PM 23.0 °F 18.4 °F -2.9 °F 32% 30.36 in 10.0 mi East 3.5 mph - N/A   Clear
8:56 PM 16.0 °F 7.4 °F -4.0 °F 41% 30.38 in 10.0 mi WNW 5.8 mph - N/A   Clear
9:56 PM 12.9 °F 3.8 °F -2.9 °F 49% 30.39 in 10.0 mi NNW 5.8 mph - N/A   Clear
10:56 PM 14.0 °F 8.2 °F -2.9 °F 47% 30.39 in 10.0 mi North 3.5 mph - N/A   Clear
11:56 PM 14.0 °F 6.5 °F -0.9 °F 52% 30.38 in 10.0 mi NNW 4.6 mph - N/A   Clear